DW5656 Weather Reports


time (UTC)temp
C
wind
direction
speed
KPH
gust
KPH
rain 1hr
cm
rain 24hr
cm
rain mn
cm
humidity
%
barometer
mb
20260506092034 19 102 1.6 9.7 0.00 0.00 0.00 53 1011.9
20260506091133 18 114 1.6 9.7 0.00 0.00 0.00 55 1011.8
20260506090255 18 114 1.6 4.8 0.00 0.00 0.00 55 1011.9
20260506085333 18 79 3.2 6.4 0.00 0.00 0.00 58 1012.0
20260506084433 17 65 3.2 9.7 0.00 0.00 0.00 59 1012.0
20260506083555 17 74 3.2 9.7 0.00 0.00 0.00 58 1012.0
20260506082633 17 30 3.2 8.0 0.00 0.00 0.00 59 1012.0
20260506081733 17 346 3.2 6.4 0.00 0.00 0.00 59 1012.0
20260506080833 17 347 3.2 6.4 0.00 0.00 0.00 61 1012.0
20260506073233 16 356 3.2 8.0 0.00 0.00 0.00 63 1012.2
20260506072333 16 21 6.4 11.3 0.00 0.00 0.00 64 1012.2
20260506071433 15 6 6.4 14.5 0.00 0.00 0.00 65 1012.2
20260506070533 15 26 4.8 12.9 0.00 0.00 0.00 66 1012.1
20260506062033 15 3 3.2 8.0 0.00 0.00 0.00 65 1012.0
20260506061154 15 21 3.2 9.7 0.00 0.00 0.00 66 1011.9
20260506060233 15 358 3.2 8.0 0.00 0.00 0.00 66 1011.9
20260506050833 15 339 3.2 6.4 0.00 0.00 0.00 64 1011.7
20260506045033 16 6 1.6 8.0 0.00 0.00 0.00 63 1011.5
20260506044133 16 24 1.6 8.0 0.00 0.00 0.00 62 1011.6
20260506043233 16 58 1.6 6.4 0.00 0.00 0.00 62 1011.5
20260506042333 16 73 1.6 6.4 0.00 0.00 0.00 62 1011.6
20260506041433 16 59 1.6 4.8 0.00 0.00 0.00 61 1011.6
20260506040533 16 41 1.6 4.8 0.00 0.00 0.00 61 1011.7
20260506035653 16 41 1.6 6.4 0.00 0.00 0.00 61 1011.8
20260506034733 16 46 1.6 8.0 0.00 0.00 0.00 61 1011.8
20260506033833 16 42 1.6 4.8 0.00 0.00 0.00 61 1011.9
20260506032932 16 54 3.2 6.4 0.00 0.00 0.00 60 1011.9
20260506032053 16 52 3.2 8.0 0.00 0.00 0.00 61 1012.0
20260506031133 16 33 3.2 8.0 0.00 0.00 0.00 61 1011.9
20260506030253 16 22 3.2 8.0 0.00 0.00 0.00 61 1012.0
20260506025332 16 360 3.2 8.0 0.00 0.00 0.00 60 1012.0
20260506024453 16 14 1.6 8.0 0.00 0.00 0.00 59 1012.0
20260506023532 16 2 3.2 6.4 0.00 0.00 0.00 59 1011.8
20260506022632 16 358 3.2 8.0 0.00 0.00 0.00 58 1012.0
20260506021732 16 16 3.2 11.3 0.00 0.00 0.00 58 1011.8
20260506020853 17 4 4.8 11.3 0.00 0.00 0.00 57 1011.9
20260506015932 17 356 3.2 12.9 0.00 0.00 0.00 57 1012.0
20260506015032 17 343 4.8 9.7 0.00 0.00 0.00 56 1011.9
20260506014132 17 342 4.8 14.5 0.00 0.00 0.00 56 1012.0
20260506013232 17 346 4.8 12.9 0.00 0.00 0.00 55 1012.1
20260506012332 17 357 4.8 11.3 0.00 0.00 0.00 55 1012.1
20260506011432 17 351 4.8 12.9 0.00 0.00 0.00 54 1012.2
20260506010532 17 10 6.4 12.9 0.00 0.00 0.00 54 1012.4
20260506005632 17 6 6.4 14.5 0.00 0.00 0.00 53 1012.5
20260506004732 17 4 6.4 17.7 0.00 0.00 0.00 53 1012.4
20260506003832 17 359 4.8 17.7 0.00 0.00 0.00 52 1012.4
20260506002933 17 3 4.8 14.5 0.00 0.00 0.00 52 1012.5
20260506002032 17 2 4.8 14.5 0.00 0.00 0.00 51 1012.7
20260506001132 17 12 4.8 14.5 0.00 0.00 0.00 50 1012.7
20260506000232 18 3 4.8 11.3 0.00 0.00 0.00 50 1012.7
20260505235332 18 357 3.2 8.0 0.00 0.00 0.00 50 1012.7
20260505234432 18 347 4.8 8.0 0.00 0.00 0.00 50 1012.6
20260505233532 18 1 4.8 11.3 0.00 0.00 0.00 50 1012.7
20260505232632 18 30 4.8 9.7 0.00 0.00 0.00 49 1012.7
20260505231753 18 356 4.8 9.7 0.00 0.00 0.00 48 1012.7
20260505230853 18 11 4.8 11.3 0.00 0.00 0.00 48 1012.8
20260505225932 18 359 4.8 14.5 0.00 0.00 0.00 47 1012.8
20260505225053 18 349 6.4 12.9 0.00 0.00 0.00 47 1012.7
20260505224132 19 345 4.8 14.5 0.00 0.00 0.00 46 1012.7
20260505223253 19 337 4.8 12.9 0.00 0.00 0.00 46 1012.8
20260505222332 19 334 4.8 12.9 0.00 0.00 0.00 46 1012.8
20260505221453 19 340 4.8 14.5 0.00 0.00 0.00 45 1012.8
20260505220532 20 342 4.8 11.3 0.00 0.00 0.00 45 1012.8
20260505215632 20 338 6.4 14.5 0.00 0.00 0.00 45 1012.8
20260505214753 20 337 6.4 14.5 0.00 0.00 0.00 45 1012.8
20260505213852 20 331 4.8 14.5 0.00 0.00 0.00 45 1012.8
20260505212931 20 326 3.2 11.3 0.00 0.00 0.00 44 1012.8
20260505212031 20 334 4.8 9.7 0.00 0.00 0.00 44 1012.8
20260505211131 20 339 4.8 12.9 0.00 0.00 0.00 44 1012.8
20260505210231 20 340 3.2 9.7 0.00 0.00 0.00 44 1012.7
20260505205353 21 348 6.4 12.9 0.00 0.00 0.00 43 1012.7
20260505204432 21 342 6.4 16.1 0.00 0.00 0.00 43 1012.6
20260505203552 21 344 6.4 17.7 0.00 0.00 0.00 42 1012.6
20260505202652 21 337 6.4 17.7 0.00 0.00 0.00 42 1012.5
20260505201732 21 343 6.4 16.1 0.00 0.00 0.00 41 1012.3
20260505200853 21 340 8.0 19.3 0.00 0.00 0.00 41 1012.2
20260505195931 22 332 4.8 19.3 0.00 0.00 0.00 40 1012.1
20260505195031 22 337 6.4 14.5 0.00 0.00 0.00 40 1012.0
20260505194131 22 339 8.0 14.5 0.00 0.00 0.00 40 1011.8
20260505193232 22 350 6.4 17.7 0.00 0.00 0.00 39 1011.8
20260505192331 22 352 6.4 17.7 0.00 0.00 0.00 38 1011.8
20260505191431 23 337 8.0 19.3 0.00 0.00 0.00 38 1011.7
20260505190552 23 332 6.4 17.7 0.00 0.00 0.00 36 1011.6
20260505185632 23 329 3.2 14.5 0.00 0.00 0.00 34 1011.4
20260505184752 24 336 4.8 12.9 0.00 0.00 0.00 34 1011.4
20260505183831 24 346 4.8 12.9 0.00 0.00 0.00 34 1011.4
20260505182931 24 354 6.4 14.5 0.00 0.00 0.00 34 1011.3
20260505182052 24 351 6.4 17.7 0.00 0.00 0.00 33 1011.3
20260505181131 24 348 4.8 17.7 0.00 0.00 0.00 33 1011.2
20260505180231 24 8 6.4 14.5 0.00 0.00 0.00 33 1011.4
20260505175331 25 333 6.4 16.1 0.00 0.00 0.00 33 1011.5
20260505174431 25 346 6.4 14.5 0.00 0.00 0.00 33 1011.4
20260505173531 25 349 4.8 17.7 0.00 0.00 0.00 33 1011.4
20260505172631 25 330 6.4 14.5 0.00 0.00 0.00 31 1011.5
20260505171731 25 359 6.4 16.1 0.00 0.00 0.00 31 1011.6
20260505170852 25 347 6.4 16.1 0.00 0.00 0.00 32 1011.6
20260505165931 25 348 6.4 17.7 0.00 0.00 0.00 31 1011.7
20260505165031 25 351 4.8 16.1 0.00 0.00 0.00 32 1011.7
20260505164132 25 46 4.8 12.9 0.00 0.00 0.00 32 1011.6
20260505163231 25 34 8.0 16.1 0.00 0.00 0.00 31 1011.8
20260505162331 24 358 8.0 19.3 0.00 0.00 0.00 31 1011.8
20260505161431 25 322 3.2 19.3 0.00 0.00 0.00 31 1011.8
20260505160531 25 360 3.2 9.7 0.00 0.00 0.00 30 1011.7
20260505152952 25 289 4.8 12.9 0.00 0.00 0.00 31 1011.9
20260505152030 24 329 4.8 14.5 0.00 0.00 0.00 31 1012.0
20260505151130 24 265 3.2 14.5 0.00 0.00 0.00 31 1012.1
20260505150230 24 267 1.6 6.4 0.00 0.00 0.00 33 1012.2
20260505124731 22 250 3.2 11.3 0.00 0.00 0.00 39 1013.5
20260505123830 21 231 6.4 11.3 0.00 0.00 0.00 40 1013.6
20260505122930 21 246 4.8 16.1 0.00 0.00 0.00 40 1013.7
20260505122030 22 275 6.4 17.7 0.00 0.00 0.00 40 1013.9
20260505121130 21 8 8.0 17.7 0.00 0.00 0.00 41 1014.1
20260505120230 21 342 6.4 19.3 0.00 0.00 0.00 41 1014.3
20260505115330 21 277 4.8 19.3 0.00 0.00 0.00 41 1014.4
20260505114430 21 321 3.2 14.5 0.00 0.00 0.00 42 1014.5
20260505113530 21 261 3.2 12.9 0.00 0.00 0.00 43 1014.6
20260505112630 20 277 4.8 16.1 0.00 0.00 0.00 43 1014.8
20260505111730 20 298 6.4 17.7 0.00 0.00 0.00 44 1014.8
20260505110830 20 347 3.2 16.1 0.00 0.00 0.00 44 1015.0
20260505101429 19 15 3.2 14.5 0.00 0.00 0.00 46 1015.2
20260505100530 18 349 3.2 11.3 0.00 0.00 0.00 48 1015.3
20260505095629 18 307 1.6 8.0 0.00 0.00 0.00 49 1015.3
20260505094730 18 324 4.8 9.7 0.00 0.00 0.00 51 1015.4
20260505093851 17 335 4.8 14.5 0.00 0.00 0.00 51 1015.4
20260505092950 17 335 4.8 14.5 0.00 0.00 0.00 52 1015.3